Вернуться в каталог

STARLINK-31330

АктивенСвязьVLEO
NORAD 58951·PAYLOAD·🇺🇸 United States

Запущен Feb 10, 2024 с Vandenberg Space Force Base

Loading…

Ближайшие Пролёты (ближайшие 24 часа)

TLE

СвежийSource: CelesTrak SupGP

Эпоха: Sep 15, 2026, 02:10 UTC

1 58951C 24027W   26258.09076389  .00020762  00000+0  61337-3 0  2585
2 58951  53.1575 142.9503 0001293  77.5657 308.7898 15.34382048    14

Отслеживайте STARLINK-31330 в реальном времени с AllMySat

Download on the App Store